Flag for Germany Weather past 2 weeks in Berlin, Berlin, Germany

Now
53 °F

Cool.


Feels Like: 51 °F
Forecast: 44 / 51 °F
Wind: 6 mph from North

Location: Berlin-Tempelhof

Current Time: Apr 27, 2015 at 4:01:36 PM

Latest Report: Apr 27, 2015 at 3:00 PM


Visibility: N/A

Pressure: 29.65 "Hg

Humidity: 94%

Dew point: 51 °F

Location of BerlinLocation

Historic Weather in Berlin — Graph

°F

Berlin temperature yesterday

Maximum temperature yesterday: 64 °F (at 3:00 PM)
Minimum temperature yesterday: 52 °F (at 11:00 PM)
Average temperature yesterday: 58 °F

Past Weeks' High & Low Weather Summary

 TemperatureHumidityPressure
High73 °F (Apr 25, 3:00 PM)99% (Apr 27, 6:00 AM)30.40 "Hg (Apr 27, 6:00 AM)
Low35 °F (Apr 18, 6:00 AM)24% (Apr 21, 3:00 PM)29.59 "Hg (Apr 27, 10:00 AM)
Average53 °F59%30.07 "Hg
* Reported Apr 12 2:00 PM — Apr 27 2:00 PM, Berlin, Weather by CustomWeather, © 2015

Note: Actual official high and low records may vary slightly from our data, if they occured in-between our weather recording intervals... More about our weather records

Advertising

Berlin weather history for previous 24 hours

 ConditionsComfort  
Time TempWeatherWind HumidityBarometerVisibility
2:00 PM
Mon, Apr 27
56 °FCool.5 mph88%29.62 "HgN/A
1:00 PM58 °FCool.5 mph86%29.61 "HgN/A
12:00 PM58 °FCool.3 mph87%29.61 "HgN/A
11:00 AM57 °FCool.1 mph89%29.60 "HgN/A
10:00 AM52 °FCool.2 mph96%29.59 "HgN/A
9:00 AM52 °FCool.3 mph96%29.60 "HgN/A
8:00 AM52 °FCool.6 mph96%29.62 "HgN/A
7:00 AM51 °FCool.2 mph96%29.60 "HgN/A
6:00 AM49 °FCool.1 mph99%29.61 "HgN/A
5:00 AM45 °FCool.1 mph97%29.62 "HgN/A
4:00 AM47 °FCool.1 mph96%29.65 "HgN/A
3:00 AM48 °FCool.1 mph96%29.66 "HgN/A
2:00 AM49 °FCool.1 mph97%29.68 "HgN/A
1:00 AM51 °FCool.1 mph93%29.69 "HgN/A
12:00 AM54 °FCool.1 mph87%29.69 "HgN/A
11:00 PM
Sun, Apr 26
52 °FCool.1 mph91%29.69 "HgN/A
10:00 PM54 °FCool.1 mph86%29.70 "HgN/A
9:00 PM57 °FCool.1 mph79%29.70 "HgN/A
8:00 PM60 °FCool.1 mph73%29.69 "HgN/A
7:00 PM60 °FCool.2 mph80%29.69 "HgN/A
6:00 PM61 °FCool.3 mph70%29.71 "HgN/A
5:00 PM62 °FCool.3 mph67%29.71 "HgN/A
4:00 PM59 °FCool.5 mph79%29.72 "HgN/A
Weather by CustomWeather, © 2015

See weather overviewHow to use our weather pages